340  
AXUS43 KGID 282002  
MISGRI  
 
GID CWA HOURLY WEATHER ROUNDUP  
NATIONAL WEATHER SERVICE HASTINGS NE  
200 PM CST WED JAN 28 2015  
 
NOTE: "FAIR" INDICATES FEW OR NO CLOUDS BELOW 12,000 FEET WITH NO  
SIGNIFICANT WEATHER AND/OR OBSTRUCTIONS TO VISIBILITY.  
   
..SOUTH CENTRAL NEBRASKA
 
 
 
CITY SKY/WX TMP DP RH WIND PRES REMARKS  
GRAND ISLAND MOSUNNY 66 34 30 NW18G24 29.70F  
HASTINGS MOSUNNY 66 31 27 NW14 29.71F  
KEARNEY MOSUNNY 66 34 30 NW21G28 29.72F  
ORD MOSUNNY 65 32 29 NW22 29.69F  
YORK PTSUNNY 59 36 41 NW13 29.69F  
AURORA MOSUNNY 64 34 33 NW13G21 29.69F  
LEXINGTON SUNNY 67 32 27 NW28 29.76F  
HOLDREGE MOSUNNY 66 32 28 NW20G30 29.76F  
HEBRON MOSUNNY 64 29 27 NW10 29.71F  
   
..NEBRASKA PANHANDLE
 
 
 
CITY SKY/WX TMP DP RH WIND PRES REMARKS  
CHADRON CLOUDY 52 31 44 NW15G22 29.97R  
ALLIANCE CLOUDY 55 29 36 NW22G35 29.93R  
SCOTTSBLUFF N/A N/A N/A N/A MISG 30.01R  
SIDNEY SUNNY 58 33 39 NW33G45 29.98R  
   
..WESTERN AND NORTH CENTRAL NEBRASKA
 
 
 
CITY SKY/WX TMP DP RH WIND PRES REMARKS  
VALENTINE SUNNY 59 29 31 NW28G36 29.79R  
AINSWORTH SUNNY 60 31 32 NW20G30 29.76S  
ONEILL MOSUNNY 63 37 37 NW17 29.71R  
BROKEN BOW SUNNY 67 34 29 NW28 29.74F  
IMPERIAL SUNNY 64 30 27 NW26G38 29.88S  
NORTH PLATTE SUNNY 65 32 29 NW24G33 29.81F  
MCCOOK SUNNY 69 31 24 NW29G40 29.81F  
   
..EASTERN NEBRASKA
 
 
 
CITY SKY/WX TMP DP RH WIND PRES REMARKS  
NORFOLK MOSUNNY 61 36 39 W9 29.65F  
SO SIOUX CITY PTSUNNY 48 36 63 S7 29.68F  
TEKAMAH PTSUNNY 51 36 56 SE10 29.66F  
COLUMBUS PTSUNNY 54 36 50 W9 29.70S  
ALBION MOSUNNY 63 33 32 NW14 29.67F  
OMAHA EPPLEY PTSUNNY 52 35 52 SE13 29.69F  
OFFUTT AFB MOSUNNY 55 35 47 SE7 29.68F  
MILLARD MOSUNNY 54 35 50 SE10 29.69F  
LINCOLN MOSUNNY 59 35 40 S5 29.69F  
NEBRASKA CITY PTSUNNY 61 31 31 S7 29.69F  
BEATRICE PTSUNNY 61 36 39 SW12 29.71F  
FALLS CITY PTSUNNY 68 38 33 S18 29.70F  
   
..NORTHERN KANSAS
 
 
 
CITY SKY/WX TMP DP RH WIND PRES REMARKS  
GOODLAND SUNNY 66 26 22 NW36G45 29.92F  
HILL CITY SUNNY 71 31 22 NW26G40 29.82F  
NORTON CLEAR 70 25 18 NW26G33 29.79S  
PHILLIPSBURG SUNNY 73 32 21 NW26G38 29.76F  
SMITH CENTER SUNNY 70 32 24 NW20G26 29.74F  
BELOIT SUNNY 70 32 24 NW14 29.72F  
HAYS MOSUNNY 70 30 23 NW29G39 29.81S  
RUSSELL MOSUNNY 72 32 23 NW25G33 29.77F  
CONCORDIA MOSUNNY 65 34 31 NW10 29.72F  
SALINA PTSUNNY 67 34 29 NW10 29.76F  
TOPEKA PTSUNNY 75 37 25 S13G23 29.72F  
 
CLICK HERE TO GO TO PREVIOUS BULLETINS.

The Nexlab NE Page
The Nexlab KS Page Main Text Page